USA 99 (MILSTAR-1 1)    
1 22988U 94009A   19260.40768384 -.00000263  00000-0  00000+0 0  9990
2 22988  13.6827  54.2314 0002960 127.3611 282.4728  1.00273436  6932
TITAN 4 CENTAUR R/B     
1 22989U 94009B   19258.40127066 -.00000229  00000-0  00000+0 0  9996
2 22989  13.4365  47.6020 0010701 180.9902 179.0796  1.00602663   453